This demonstration page uses our WeatherBlox Daily Observations layout. Learn more.

38.88101, -77.10428

Hourly Observations for June 24, 2017

Temp ( °F °C ) Dew Point ( °F °C ) Humidity (%) Winds ( mph kmh ) Pressure ( in mb ) Visibility ( mi km ) Precip ( " mm )
12:52 am 00:52 Cloudy 84 28.9 72 22.2 67 67 SSW 14 22 29.67 1005 10 16.0934 0 0
1:52 am 01:52 Cloudy with Light Rain 83 28.3 72 22.2 70 70 SSW 12 19 29.65 1004 10 16.0934 0 0.0254
2:52 am 02:52 Cloudy with Light Rain 79 26.1 74 23.3 85 85 S 9 15 29.62 1003 10 16.0934 0.03 0.762
3:52 am 03:52 Cloudy 80 26.7 75 23.9 85 85 S 14 22 29.58 1002 10 16.0934 0 0.0254
4:35 am 04:35 Cloudy with Light Rain 81 27.2 75 23.9 82 82 SSW 26 43 29.59 1002 9 14.48406 0 0.0254
4:52 am 04:52 Cloudy with Heavy Rain 79 26.1 75 23.9 88 88 W 24 39 29.61 1003 4 6.43736 0 0.0254
4:58 am 04:58 Cloudy with Rain 77 25 74 23.3 90 90 NW 20 31 29.62 1003 4 6.43736 0.03 0.762
5:03 am 05:03 Cloudy with Light Rain 75 23.9 72 22.2 90 90 NW 18 30 29.65 1004 5 8.0467 0.04 1.016
5:10 am 05:10 Cloudy with Light Rain 75 23.9 72 22.2 90 90 NW 18 30 29.65 1004 9 14.48406 0.04 1.016
5:52 am 05:52 Mostly Cloudy 74 23.3 70 21.1 88 88 VRB 7 11 29.68 1005 10 16.0934 0.04 1.016
6:22 am 06:22 Partly Cloudy 74 23.3 70 21.1 88 88 WNW 9 15 29.71 1006 10 16.0934 0 0
6:52 am 06:52 Mostly Sunny 74 23.3 69 20.6 85 85 W 8 13 29.72 1006 10 16.0934 0 0
7:52 am 07:52 Partly Cloudy 76 24.4 68 20 77 77 W 13 20 29.75 1008 10 16.0934 0 0
8:52 am 08:52 Sunny 80 26.7 67 19.4 64 64 WNW 13 20 29.79 1009 10 16.0934 0 0
9:52 am 09:52 Mostly Cloudy 80 26.7 66 18.9 62 62 W 20 31 29.82 1010 10 16.0934 0 0
10:52 am 10:52 Mostly Cloudy 82 27.8 64 17.8 55 55 WNW 20 31 29.85 1011 10 16.0934 0 0
11:52 am 11:52 Partly Cloudy 85 29.4 63 17.2 48 48 NNW 18 30 29.86 1011 10 16.0934 0 0
12:52 pm 12:52 Mostly Cloudy 86 30 61 16.1 43 43 WNW 14 22 29.87 1012 10 16.0934 0 0
1:52 pm 13:52 Mostly Cloudy 87 30.6 60 15.6 40 40 WNW 17 28 29.87 1012 10 16.0934 0 0
2:52 pm 14:52 Mostly Cloudy 89 31.7 60 15.6 38 38 W 15 24 29.87 1012 10 16.0934 0 0
3:12 pm 15:12 Mostly Cloudy 86 30 59 15 40 40 WNW 9 15 29.88 1012 10 16.0934 0 0
3:52 pm 15:52 Mostly Cloudy 88 31.1 57 13.9 35 35 W 14 22 29.88 1012 10 16.0934 0 0
4:52 pm 16:52 Mostly Cloudy 88 31.1 59 15 38 38 WNW 13 20 29.89 1012 10 16.0934 0 0
5:52 pm 17:52 Mostly Cloudy 86 30 57 13.9 37 37 W 12 19 29.89 1012 10 16.0934 0 0
6:52 pm 18:52 Partly Cloudy 86 30 57 13.9 37 37 W 9 15 29.9 1013 10 16.0934 0 0
7:52 pm 19:52 Partly Cloudy 84 28.9 57 13.9 40 40 WSW 8 13 29.9 1013 10 16.0934 0 0
8:52 pm 20:52 Mostly Cloudy 82 27.8 57 13.9 42 42 WSW 6 9 29.93 1013 10 16.0934 0 0
9:52 pm 21:52 Mostly Cloudy 81 27.2 59 15 47 47 WSW 3 6 29.95 1014 10 16.0934 0 0
10:52 pm 22:52 Mostly Cloudy 80 26.7 59 15 49 49 W 6 9 29.96 1015 10 16.0934 0 0
11:52 pm 23:52 Partly Cloudy 77 25 62 16.7 60 60 WSW 3 6 29.96 1015 10 16.0934 0 0

Powered by AerisWeather